Year,Month,Day,Hour,Minute,Value (Times are PST for temperature in C)
2014,08,19,00,00,18.20
2014,08,19,00,01,18.20
2014,08,19,00,02,18.20
2014,08,19,00,03,18.20
2014,08,19,00,04,18.20
2014,08,19,00,05,18.20
2014,08,19,00,06,18.10
2014,08,19,00,07,18.10
2014,08,19,00,08,18.10
2014,08,19,00,09,18.10
2014,08,19,00,10,18.10
2014,08,19,00,11,18.10
2014,08,19,00,12,18.10
2014,08,19,00,13,18.10
2014,08,19,00,14,18.10
2014,08,19,00,15,18.10
2014,08,19,00,16,18.10
2014,08,19,00,17,18.20
2014,08,19,00,18,18.20
2014,08,19,00,19,18.20
2014,08,19,00,20,18.10
2014,08,19,00,21,18.20
2014,08,19,00,22,18.10
2014,08,19,00,23,18.20
2014,08,19,00,24,18.20
2014,08,19,00,25,18.20
2014,08,19,00,26,18.20
2014,08,19,00,27,18.20
2014,08,19,00,28,18.20
2014,08,19,00,29,18.20
2014,08,19,00,30,18.20
2014,08,19,00,31,18.20
2014,08,19,00,32,18.20
2014,08,19,00,33,18.20
2014,08,19,00,34,18.20
2014,08,19,00,35,18.20
2014,08,19,00,36,18.20
2014,08,19,00,37,18.20
2014,08,19,00,38,18.20
2014,08,19,00,39,18.20
2014,08,19,00,40,18.20
2014,08,19,00,41,18.20
2014,08,19,00,42,18.20
2014,08,19,00,43,18.20
2014,08,19,00,44,18.10
2014,08,19,00,45,18.10
2014,08,19,00,46,18.10
2014,08,19,00,47,18.10
2014,08,19,00,48,18.10
2014,08,19,00,49,18.10
2014,08,19,00,50,18.10
2014,08,19,00,51,18.10
2014,08,19,00,52,18.10
2014,08,19,00,53,18.10
2014,08,19,00,54,18.10
2014,08,19,00,55,18.10
2014,08,19,00,56,18.10
2014,08,19,00,57,18.10
2014,08,19,00,58,18.10
2014,08,19,00,59,18.20
2014,08,19,01,00,18.20
2014,08,19,01,01,18.20
2014,08,19,01,02,18.20
2014,08,19,01,03,18.20
2014,08,19,01,04,18.20
2014,08,19,01,05,18.20
2014,08,19,01,06,18.20
2014,08,19,01,07,18.20
2014,08,19,01,08,18.20
2014,08,19,01,09,18.20
2014,08,19,01,10,18.20
2014,08,19,01,11,18.20
2014,08,19,01,12,18.30
2014,08,19,01,13,18.30
2014,08,19,01,14,18.20
2014,08,19,01,15,18.30
2014,08,19,01,16,18.30
2014,08,19,01,17,18.30
2014,08,19,01,18,18.30
2014,08,19,01,19,18.30
2014,08,19,01,20,18.30
2014,08,19,01,21,18.30
2014,08,19,01,22,18.30
2014,08,19,01,23,18.30
2014,08,19,01,24,18.30
2014,08,19,01,25,18.30
2014,08,19,01,26,18.30
2014,08,19,01,27,18.30
2014,08,19,01,28,18.30
2014,08,19,01,29,18.30
2014,08,19,01,30,18.20
2014,08,19,01,31,18.20
2014,08,19,01,32,18.20
2014,08,19,01,33,18.20
2014,08,19,01,34,18.20
2014,08,19,01,35,18.20
2014,08,19,01,36,18.20
2014,08,19,01,37,18.20
2014,08,19,01,38,18.20
2014,08,19,01,39,18.20
2014,08,19,01,40,18.20
2014,08,19,01,41,18.20
2014,08,19,01,42,18.20
2014,08,19,01,43,18.20
2014,08,19,01,44,18.20
2014,08,19,01,45,18.20
2014,08,19,01,46,18.10
2014,08,19,01,47,18.10
2014,08,19,01,48,18.10
2014,08,19,01,49,18.10
2014,08,19,01,50,18.10
2014,08,19,01,51,18.10
2014,08,19,01,52,18.10
2014,08,19,01,53,18.10
2014,08,19,01,54,18.00
2014,08,19,01,55,18.00
2014,08,19,01,56,17.90
2014,08,19,01,57,17.90
2014,08,19,01,58,17.80
2014,08,19,01,59,17.80
2014,08,19,02,00,17.70
2014,08,19,02,01,17.70
2014,08,19,02,02,17.60
2014,08,19,02,03,17.60
2014,08,19,02,04,17.60
2014,08,19,02,05,17.60
2014,08,19,02,06,17.50
2014,08,19,02,07,17.50
2014,08,19,02,08,17.40
2014,08,19,02,09,17.40
2014,08,19,02,10,17.40
2014,08,19,02,11,17.30
2014,08,19,02,12,17.30
2014,08,19,02,13,17.30
2014,08,19,02,14,17.30
2014,08,19,02,15,17.30
2014,08,19,02,16,17.20
2014,08,19,02,17,17.20
2014,08,19,02,18,17.20
2014,08,19,02,19,17.20
2014,08,19,02,20,17.10
2014,08,19,02,21,17.10
2014,08,19,02,22,17.10
2014,08,19,02,23,17.10
2014,08,19,02,24,17.00
2014,08,19,02,25,17.00
2014,08,19,02,26,17.00
2014,08,19,02,27,16.90
2014,08,19,02,28,16.90
2014,08,19,02,29,16.90
2014,08,19,02,30,16.90
2014,08,19,02,31,16.90
2014,08,19,02,32,16.90
2014,08,19,02,33,16.90
2014,08,19,02,34,16.80
2014,08,19,02,35,16.80
2014,08,19,02,36,16.80
2014,08,19,02,37,16.80
2014,08,19,02,38,16.80
2014,08,19,02,39,16.80
2014,08,19,02,40,16.80
2014,08,19,02,41,16.80
2014,08,19,02,42,16.70
2014,08,19,02,43,16.70
2014,08,19,02,44,16.70
2014,08,19,02,45,16.70
2014,08,19,02,46,16.70
2014,08,19,02,47,16.70
2014,08,19,02,48,16.70
2014,08,19,02,49,16.70
2014,08,19,02,50,16.70
2014,08,19,02,51,16.70
2014,08,19,02,52,16.70
2014,08,19,02,53,16.70
2014,08,19,02,54,16.70
2014,08,19,02,55,16.70
2014,08,19,02,56,16.70
2014,08,19,02,57,16.70
2014,08,19,02,58,16.70
2014,08,19,02,59,16.70
2014,08,19,03,00,16.70
2014,08,19,03,01,16.70
2014,08,19,03,02,16.70
2014,08,19,03,03,16.70
2014,08,19,03,04,16.70
2014,08,19,03,05,16.70
2014,08,19,03,06,16.70
2014,08,19,03,07,16.70
2014,08,19,03,08,16.70
2014,08,19,03,09,16.70
2014,08,19,03,10,16.70
2014,08,19,03,11,16.70
2014,08,19,03,12,16.70
2014,08,19,03,13,16.70
2014,08,19,03,14,16.70
2014,08,19,03,15,16.70
2014,08,19,03,16,16.70
2014,08,19,03,17,16.70
2014,08,19,03,18,16.70
2014,08,19,03,19,16.70
2014,08,19,03,20,16.70
2014,08,19,03,21,16.70
2014,08,19,03,22,16.70
2014,08,19,03,23,16.70
2014,08,19,03,24,16.70
2014,08,19,03,25,16.70
2014,08,19,03,26,16.70
2014,08,19,03,27,16.70
2014,08,19,03,28,16.70
2014,08,19,03,29,16.70
2014,08,19,03,30,16.70
2014,08,19,03,31,16.70
2014,08,19,03,32,16.70
2014,08,19,03,33,16.70
2014,08,19,03,34,16.70
2014,08,19,03,35,16.70
2014,08,19,03,36,16.70
2014,08,19,03,37,16.70
2014,08,19,03,38,16.70
2014,08,19,03,39,16.70
2014,08,19,03,40,16.70
2014,08,19,03,41,16.80
2014,08,19,03,42,16.80
2014,08,19,03,43,16.80
2014,08,19,03,44,16.80
2014,08,19,03,45,16.80
2014,08,19,03,46,16.80
2014,08,19,03,47,16.80
2014,08,19,03,48,16.80
2014,08,19,03,49,16.80
2014,08,19,03,50,16.80
2014,08,19,03,51,16.80
2014,08,19,03,52,16.80
2014,08,19,03,53,16.80
2014,08,19,03,54,16.80
2014,08,19,03,55,16.70
2014,08,19,03,56,16.70
2014,08,19,03,57,16.70
2014,08,19,03,58,16.70
2014,08,19,03,59,16.70
2014,08,19,04,00,16.70
2014,08,19,04,01,16.70
2014,08,19,04,02,16.70
2014,08,19,04,03,16.70
2014,08,19,04,04,16.70
2014,08,19,04,05,16.70
2014,08,19,04,06,16.70
2014,08,19,04,07,16.70
2014,08,19,04,08,16.60
2014,08,19,04,09,16.70
2014,08,19,04,10,16.60
2014,08,19,04,11,16.60
2014,08,19,04,12,16.60
2014,08,19,04,13,16.60
2014,08,19,04,14,16.60
2014,08,19,04,15,16.50
2014,08,19,04,16,16.50
2014,08,19,04,17,16.50
2014,08,19,04,18,16.50
2014,08,19,04,19,16.40
2014,08,19,04,20,16.40
2014,08,19,04,21,16.40
2014,08,19,04,22,16.40
2014,08,19,04,23,16.40
2014,08,19,04,24,16.40
2014,08,19,04,25,16.40
2014,08,19,04,26,16.30
2014,08,19,04,27,16.30
2014,08,19,04,28,16.30
2014,08,19,04,29,16.30
2014,08,19,04,30,16.30
2014,08,19,04,31,16.30
2014,08,19,04,32,16.30
2014,08,19,04,33,16.30
2014,08,19,04,34,16.30
2014,08,19,04,35,16.20
2014,08,19,04,36,16.20
2014,08,19,04,37,16.20
2014,08,19,04,38,16.20
2014,08,19,04,39,16.20
2014,08,19,04,40,16.20
2014,08,19,04,41,16.20
2014,08,19,04,42,16.20
2014,08,19,04,43,16.20
2014,08,19,04,44,16.20
2014,08,19,04,45,16.20
2014,08,19,04,46,16.20
2014,08,19,04,47,16.20
2014,08,19,04,48,16.20
2014,08,19,04,49,16.20
2014,08,19,04,50,16.20
2014,08,19,04,51,16.10
2014,08,19,04,52,16.10
2014,08,19,04,53,16.10
2014,08,19,04,54,16.10
2014,08,19,04,55,16.10
2014,08,19,04,56,16.00
2014,08,19,04,57,16.00
2014,08,19,04,58,16.00
2014,08,19,04,59,16.00
2014,08,19,05,00,15.90
2014,08,19,05,01,15.90
2014,08,19,05,02,15.90
2014,08,19,05,03,15.90
2014,08,19,05,04,15.90
2014,08,19,05,05,15.90
2014,08,19,05,06,15.90
2014,08,19,05,07,15.80
2014,08,19,05,08,15.80
2014,08,19,05,09,15.80
2014,08,19,05,10,15.80
2014,08,19,05,11,15.80
2014,08,19,05,12,15.80
2014,08,19,05,13,15.80
2014,08,19,05,14,15.80
2014,08,19,05,15,15.80
2014,08,19,05,16,15.80
2014,08,19,05,17,15.70
2014,08,19,05,18,15.70
2014,08,19,05,19,15.70
2014,08,19,05,20,15.70
2014,08,19,05,21,15.70
2014,08,19,05,22,15.70
2014,08,19,05,23,15.70
2014,08,19,05,24,15.70
2014,08,19,05,25,15.70
2014,08,19,05,26,15.70
2014,08,19,05,27,15.70
2014,08,19,05,28,15.70
2014,08,19,05,29,15.70
2014,08,19,05,30,15.70
2014,08,19,05,31,15.70
2014,08,19,05,32,15.70
2014,08,19,05,33,15.70
2014,08,19,05,34,15.70
2014,08,19,05,35,15.70
2014,08,19,05,36,15.70
2014,08,19,05,37,15.70
2014,08,19,05,38,15.60
2014,08,19,05,39,15.60
2014,08,19,05,40,15.60
2014,08,19,05,41,15.60
2014,08,19,05,42,15.60
2014,08,19,05,43,15.60
2014,08,19,05,44,15.60
2014,08,19,05,45,15.50
2014,08,19,05,46,15.50
2014,08,19,05,47,15.50
2014,08,19,05,48,15.50
2014,08,19,05,49,15.50
2014,08,19,05,50,15.40
2014,08,19,05,51,15.40
2014,08,19,05,52,15.40
2014,08,19,05,53,15.40
2014,08,19,05,54,15.40
2014,08,19,05,55,15.40
2014,08,19,05,56,15.40
2014,08,19,05,57,15.40
2014,08,19,05,58,15.40
2014,08,19,05,59,15.40
2014,08,19,06,00,15.40
2014,08,19,06,01,15.40
2014,08,19,06,02,15.40
2014,08,19,06,03,15.40
2014,08,19,06,04,15.40
2014,08,19,06,05,15.40
2014,08,19,06,06,15.40
2014,08,19,06,07,15.40
2014,08,19,06,08,15.30
2014,08,19,06,09,15.30
2014,08,19,06,10,15.30
2014,08,19,06,11,15.30
2014,08,19,06,12,15.30
2014,08,19,06,13,15.30
2014,08,19,06,14,15.30
2014,08,19,06,15,15.30
2014,08,19,06,16,15.30
2014,08,19,06,17,15.20
2014,08,19,06,18,15.20
2014,08,19,06,19,15.20
2014,08,19,06,20,15.20
2014,08,19,06,21,15.20
2014,08,19,06,22,15.20
2014,08,19,06,23,15.20
2014,08,19,06,24,15.10
2014,08,19,06,25,15.10
2014,08,19,06,26,15.10
2014,08,19,06,27,15.10
2014,08,19,06,28,15.00
2014,08,19,06,29,15.00
2014,08,19,06,30,14.90
2014,08,19,06,31,14.90
2014,08,19,06,32,14.80
2014,08,19,06,33,14.80
2014,08,19,06,34,14.80
2014,08,19,06,35,14.80
2014,08,19,06,36,14.70
2014,08,19,06,37,14.70
2014,08,19,06,38,14.70
2014,08,19,06,39,14.70
2014,08,19,06,40,14.60
2014,08,19,06,41,14.60
2014,08,19,06,42,14.60
2014,08,19,06,43,14.60
2014,08,19,06,44,14.60
2014,08,19,06,45,14.60
2014,08,19,06,46,14.50
2014,08,19,06,47,14.50
2014,08,19,06,48,14.50
2014,08,19,06,49,14.50
2014,08,19,06,50,14.50
2014,08,19,06,51,14.40
2014,08,19,06,52,14.40
2014,08,19,06,53,14.40
2014,08,19,06,54,14.40
2014,08,19,06,55,14.50
2014,08,19,06,56,14.50
2014,08,19,06,57,14.50
2014,08,19,06,58,14.60
2014,08,19,06,59,14.60
2014,08,19,07,00,14.60
2014,08,19,07,01,14.60
2014,08,19,07,02,14.60
2014,08,19,07,03,14.60
2014,08,19,07,04,14.60
2014,08,19,07,05,14.70
2014,08,19,07,06,14.70
2014,08,19,07,07,14.70
2014,08,19,07,08,14.70
2014,08,19,07,09,14.70
2014,08,19,07,10,14.70
2014,08,19,07,11,14.70
2014,08,19,07,12,14.70
2014,08,19,07,13,14.80
2014,08,19,07,14,14.80
2014,08,19,07,15,14.80
2014,08,19,07,16,14.80
2014,08,19,07,17,14.80
2014,08,19,07,18,14.80
2014,08,19,07,19,14.80
2014,08,19,07,20,14.90
2014,08,19,07,21,14.90
2014,08,19,07,22,14.90
2014,08,19,07,23,14.90
2014,08,19,07,24,14.90
2014,08,19,07,25,14.90
2014,08,19,07,26,15.00
2014,08,19,07,27,15.00
2014,08,19,07,28,15.00
2014,08,19,07,29,15.10
2014,08,19,07,30,15.10
2014,08,19,07,31,15.10
2014,08,19,07,32,15.10
2014,08,19,07,33,15.10
2014,08,19,07,34,15.20
2014,08,19,07,35,15.20
2014,08,19,07,36,15.20
2014,08,19,07,37,15.20
2014,08,19,07,38,15.20
2014,08,19,07,39,15.20
2014,08,19,07,40,15.20
2014,08,19,07,41,15.30
2014,08,19,07,42,15.30
2014,08,19,07,43,15.30
2014,08,19,07,44,15.30
2014,08,19,07,45,15.30
2014,08,19,07,46,15.40
2014,08,19,07,47,15.40
2014,08,19,07,48,15.40
2014,08,19,07,49,15.40
2014,08,19,07,50,15.50
2014,08,19,07,51,15.50
2014,08,19,07,52,15.60
2014,08,19,07,53,15.60
2014,08,19,07,54,15.70
2014,08,19,07,55,15.70
2014,08,19,07,56,15.80
2014,08,19,07,57,15.80
2014,08,19,07,58,15.90
2014,08,19,07,59,15.90
2014,08,19,08,00,16.00
2014,08,19,08,01,16.00
2014,08,19,08,02,16.00
2014,08,19,08,03,16.10
2014,08,19,08,04,16.10
2014,08,19,08,05,16.10
2014,08,19,08,06,16.10
2014,08,19,08,07,16.20
2014,08,19,08,08,16.20
2014,08,19,08,09,16.20
2014,08,19,08,10,16.20
2014,08,19,08,11,16.20
2014,08,19,08,12,16.30
2014,08,19,08,13,16.30
2014,08,19,08,14,16.30
2014,08,19,08,15,16.40
2014,08,19,08,16,16.40
2014,08,19,08,17,16.40
2014,08,19,08,18,16.40
2014,08,19,08,19,16.50
2014,08,19,08,20,16.50
2014,08,19,08,21,16.50
2014,08,19,08,22,16.60
2014,08,19,08,23,16.60
2014,08,19,08,24,16.60
2014,08,19,08,25,16.70
2014,08,19,08,26,16.70
2014,08,19,08,27,16.70
2014,08,19,08,28,16.70
2014,08,19,08,29,16.70
2014,08,19,08,30,16.80
2014,08,19,08,31,16.80
2014,08,19,08,32,16.80
2014,08,19,08,33,16.80
2014,08,19,08,34,16.80
2014,08,19,08,35,16.90
2014,08,19,08,36,16.90
2014,08,19,08,37,16.90
2014,08,19,08,38,16.90
2014,08,19,08,39,17.00
2014,08,19,08,40,17.00
2014,08,19,08,41,17.00
2014,08,19,08,42,17.10
2014,08,19,08,43,17.10
2014,08,19,08,44,17.10
2014,08,19,08,45,17.10
2014,08,19,08,46,17.10
2014,08,19,08,47,17.20
2014,08,19,08,48,17.20
2014,08,19,08,49,17.20
2014,08,19,08,50,17.30
2014,08,19,08,51,17.30
2014,08,19,08,52,17.30
2014,08,19,08,53,17.40
2014,08,19,08,54,17.40
2014,08,19,08,55,17.50
2014,08,19,08,56,17.60
2014,08,19,08,57,17.60
2014,08,19,08,58,17.70
2014,08,19,08,59,17.70
2014,08,19,09,00,17.80
2014,08,19,09,01,17.80
2014,08,19,09,02,17.80
2014,08,19,09,03,17.90
2014,08,19,09,04,17.90
2014,08,19,09,05,18.00
2014,08,19,09,06,18.10
2014,08,19,09,07,18.20
2014,08,19,09,08,18.30
2014,08,19,09,09,18.40
2014,08,19,09,10,18.40
2014,08,19,09,11,18.50
2014,08,19,09,12,18.60
2014,08,19,09,13,18.70
2014,08,19,09,14,18.80
2014,08,19,09,15,18.90
2014,08,19,09,16,19.00
2014,08,19,09,17,19.10
2014,08,19,09,18,19.20
2014,08,19,09,19,19.30
2014,08,19,09,20,19.30
2014,08,19,09,21,19.40
2014,08,19,09,22,19.40
2014,08,19,09,23,19.50
2014,08,19,09,24,19.50
2014,08,19,09,25,19.40
2014,08,19,09,26,19.40
2014,08,19,09,27,19.40
2014,08,19,09,28,19.30
2014,08,19,09,29,19.30
2014,08,19,09,30,19.30
2014,08,19,09,31,19.20
2014,08,19,09,32,19.10
2014,08,19,09,33,19.10
2014,08,19,09,34,19.10
2014,08,19,09,35,19.10
2014,08,19,09,36,19.10
2014,08,19,09,37,19.10
2014,08,19,09,38,19.00
2014,08,19,09,39,19.00
2014,08,19,09,40,19.00
2014,08,19,09,41,18.90
2014,08,19,09,42,18.90
2014,08,19,09,43,18.90
2014,08,19,09,44,18.90
2014,08,19,09,45,19.00
2014,08,19,09,46,19.00
2014,08,19,09,47,19.10
2014,08,19,09,48,19.10
2014,08,19,09,49,19.20
2014,08,19,09,50,19.30
2014,08,19,09,51,19.30
2014,08,19,09,52,19.40
2014,08,19,09,53,19.40
2014,08,19,09,54,19.40
2014,08,19,09,55,19.50
2014,08,19,09,56,19.60
2014,08,19,09,57,19.60
2014,08,19,09,58,19.60
2014,08,19,09,59,19.50
2014,08,19,10,00,19.50
2014,08,19,10,01,19.40
2014,08,19,10,02,19.40
2014,08,19,10,03,19.40
2014,08,19,10,04,19.50
2014,08,19,10,05,19.50
2014,08,19,10,06,19.60
2014,08,19,10,07,19.60
2014,08,19,10,08,19.60
2014,08,19,10,09,19.60
2014,08,19,10,10,19.70
2014,08,19,10,11,19.70
2014,08,19,10,12,19.70
2014,08,19,10,13,19.70
2014,08,19,10,14,19.70
2014,08,19,10,15,19.60
2014,08,19,10,16,19.50
2014,08,19,10,17,19.40
2014,08,19,10,18,19.30
2014,08,19,10,19,19.20
2014,08,19,10,20,19.10
2014,08,19,10,21,19.00
2014,08,19,10,22,18.90
2014,08,19,10,23,18.80
2014,08,19,10,24,18.80
2014,08,19,10,25,18.90
2014,08,19,10,26,18.90
2014,08,19,10,27,19.00
2014,08,19,10,28,19.00
2014,08,19,10,29,19.00
2014,08,19,10,30,19.10
2014,08,19,10,31,19.10
2014,08,19,10,32,19.10
2014,08,19,10,33,19.10
2014,08,19,10,34,19.10
2014,08,19,10,35,19.10
2014,08,19,10,36,19.10
2014,08,19,10,37,19.10
2014,08,19,10,38,19.20
2014,08,19,10,39,19.20
2014,08,19,10,40,19.20
2014,08,19,10,41,19.30
2014,08,19,10,42,19.30
2014,08,19,10,43,19.30
2014,08,19,10,44,19.30
2014,08,19,10,45,19.30
2014,08,19,10,46,19.30
2014,08,19,10,47,19.30
2014,08,19,10,48,19.20
2014,08,19,10,49,19.20
2014,08,19,10,50,19.20
2014,08,19,10,51,19.20
2014,08,19,10,52,19.20
2014,08,19,10,53,19.10
2014,08,19,10,54,19.10
2014,08,19,10,55,19.10
2014,08,19,10,56,19.10
2014,08,19,10,57,19.00
2014,08,19,10,58,19.00
2014,08,19,10,59,18.80
2014,08,19,11,00,18.60
2014,08,19,11,01,18.40
2014,08,19,11,02,18.30
2014,08,19,11,03,18.20
2014,08,19,11,04,18.20
2014,08,19,11,05,18.20
2014,08,19,11,06,18.10
2014,08,19,11,07,18.10
2014,08,19,11,08,17.90
2014,08,19,11,09,17.80
2014,08,19,11,10,17.80
2014,08,19,11,11,17.80
2014,08,19,11,12,17.80
2014,08,19,11,13,17.70
2014,08,19,11,14,17.80
2014,08,19,11,15,17.80
2014,08,19,11,16,17.80
2014,08,19,11,17,17.90
2014,08,19,11,18,17.90
2014,08,19,11,19,17.90
2014,08,19,11,20,17.90
2014,08,19,11,21,17.80
2014,08,19,11,22,17.80
2014,08,19,11,23,17.80
2014,08,19,11,24,17.70
2014,08,19,11,25,17.60
2014,08,19,11,26,17.60
2014,08,19,11,27,17.60
2014,08,19,11,28,17.60
2014,08,19,11,29,17.60
2014,08,19,11,30,17.60
2014,08,19,11,31,17.60
2014,08,19,11,32,17.60
2014,08,19,11,33,17.60
2014,08,19,11,34,17.50
2014,08,19,11,35,17.40
2014,08,19,11,36,17.40
2014,08,19,11,37,17.40
2014,08,19,11,38,17.40
2014,08,19,11,39,17.30
2014,08,19,11,40,17.30
2014,08,19,11,41,17.20
2014,08,19,11,42,17.20
2014,08,19,11,43,17.20
2014,08,19,11,44,17.20
2014,08,19,11,45,17.20
2014,08,19,11,46,17.20
2014,08,19,11,47,17.30
2014,08,19,11,48,17.30
2014,08,19,11,49,17.30
2014,08,19,11,50,17.20
2014,08,19,11,51,17.20
2014,08,19,11,52,17.20
2014,08,19,11,53,17.30
2014,08,19,11,54,17.30
2014,08,19,11,55,17.40
2014,08,19,11,56,17.50
2014,08,19,11,57,17.60
2014,08,19,11,58,17.70
2014,08,19,11,59,17.70
2014,08,19,12,00,17.70
2014,08,19,12,01,17.80
2014,08,19,12,02,17.70
2014,08,19,12,03,17.80
2014,08,19,12,04,17.80
2014,08,19,12,05,17.80
2014,08,19,12,06,17.80
2014,08,19,12,07,17.80
2014,08,19,12,08,17.80
2014,08,19,12,09,17.90
2014,08,19,12,10,18.00
2014,08,19,12,11,18.10
2014,08,19,12,12,18.20
2014,08,19,12,13,18.30
2014,08,19,12,14,18.30
2014,08,19,12,15,18.30
2014,08,19,12,16,18.30
2014,08,19,12,17,18.30
2014,08,19,12,18,18.30
2014,08,19,12,19,18.30
2014,08,19,12,20,18.30
2014,08,19,12,21,18.30
2014,08,19,12,22,18.20
2014,08,19,12,23,18.20
2014,08,19,12,24,18.20
2014,08,19,12,25,18.20
2014,08,19,12,26,18.20
2014,08,19,12,27,18.20
2014,08,19,12,28,18.20
2014,08,19,12,29,18.20
2014,08,19,12,30,18.20
2014,08,19,12,31,18.20
2014,08,19,12,32,18.20
2014,08,19,12,33,18.20
2014,08,19,12,34,18.20
2014,08,19,12,35,18.20
2014,08,19,12,36,18.30
2014,08,19,12,37,18.20
2014,08,19,12,38,18.30
2014,08,19,12,39,18.30
2014,08,19,12,40,18.30
2014,08,19,12,41,18.40
2014,08,19,12,42,18.40
2014,08,19,12,43,18.40
2014,08,19,12,44,18.50
2014,08,19,12,45,18.60
2014,08,19,12,46,18.70
2014,08,19,12,47,18.80
2014,08,19,12,48,18.80
2014,08,19,12,49,18.90
2014,08,19,12,50,19.00
2014,08,19,12,51,19.20
2014,08,19,12,52,19.30
2014,08,19,12,53,19.40
2014,08,19,12,54,19.50
2014,08,19,12,55,19.60
2014,08,19,12,56,19.70
2014,08,19,12,57,19.70
2014,08,19,12,58,19.80
2014,08,19,12,59,19.80
2014,08,19,13,00,19.80
2014,08,19,13,01,19.80
2014,08,19,13,02,19.80
2014,08,19,13,03,19.80
2014,08,19,13,04,19.90
2014,08,19,13,05,19.90
2014,08,19,13,06,19.90
2014,08,19,13,07,20.00
2014,08,19,13,08,20.10
2014,08,19,13,09,20.10
2014,08,19,13,10,20.30
2014,08,19,13,11,20.30
2014,08,19,13,12,20.40
2014,08,19,13,13,20.40
2014,08,19,13,14,20.50
2014,08,19,13,15,20.60
2014,08,19,13,16,20.70
2014,08,19,13,17,20.80
2014,08,19,13,18,20.90
2014,08,19,13,19,21.00
2014,08,19,13,20,21.10
2014,08,19,13,21,21.20
2014,08,19,13,22,21.20
2014,08,19,13,23,21.20
2014,08,19,13,24,21.30
2014,08,19,13,25,21.30
2014,08,19,13,26,21.30
2014,08,19,13,27,21.30
2014,08,19,13,28,21.50
2014,08,19,13,29,21.60
2014,08,19,13,30,21.70
2014,08,19,13,31,21.80
2014,08,19,13,32,21.90
2014,08,19,13,33,22.00
2014,08,19,13,34,22.00
2014,08,19,13,35,22.10
2014,08,19,13,36,22.10
2014,08,19,13,37,22.10
2014,08,19,13,38,22.10
2014,08,19,13,39,22.10
2014,08,19,13,40,22.10
2014,08,19,13,41,22.00
2014,08,19,13,42,22.00
2014,08,19,13,43,22.00
2014,08,19,13,44,22.00
2014,08,19,13,45,22.10
2014,08,19,13,46,22.10
2014,08,19,13,47,22.10
2014,08,19,13,48,22.20
2014,08,19,13,49,22.20
2014,08,19,13,50,22.20
2014,08,19,13,51,22.20
2014,08,19,13,52,22.20
2014,08,19,13,53,22.20
2014,08,19,13,54,22.20
2014,08,19,13,55,22.20
2014,08,19,13,56,22.20
2014,08,19,13,57,22.20
2014,08,19,13,58,22.20
2014,08,19,13,59,22.30
2014,08,19,14,00,22.30
2014,08,19,14,01,22.40
2014,08,19,14,02,22.40
2014,08,19,14,03,22.40
2014,08,19,14,04,22.50
2014,08,19,14,05,22.60
2014,08,19,14,06,22.60
2014,08,19,14,07,22.70
2014,08,19,14,08,22.70
2014,08,19,14,09,22.80
2014,08,19,14,10,22.80
2014,08,19,14,11,22.80
2014,08,19,14,12,22.90
2014,08,19,14,13,23.00
2014,08,19,14,14,23.00
2014,08,19,14,15,23.10
2014,08,19,14,16,23.20
2014,08,19,14,17,23.40
2014,08,19,14,18,23.50
2014,08,19,14,19,23.60
2014,08,19,14,20,23.70
2014,08,19,14,21,23.80
2014,08,19,14,22,23.80
2014,08,19,14,23,23.80
2014,08,19,14,24,23.90
2014,08,19,14,25,23.90
2014,08,19,14,26,23.90
2014,08,19,14,27,23.90
2014,08,19,14,28,24.00
2014,08,19,14,29,24.00
2014,08,19,14,30,23.90
2014,08,19,14,31,23.90
2014,08,19,14,32,24.00
2014,08,19,14,33,24.10
2014,08,19,14,34,24.20
2014,08,19,14,35,24.20
2014,08,19,14,36,24.30
2014,08,19,14,37,24.30
2014,08,19,14,38,24.30
2014,08,19,14,39,24.30
2014,08,19,14,40,24.30
2014,08,19,14,41,24.20
2014,08,19,14,42,24.30
2014,08,19,14,43,24.30
2014,08,19,14,44,24.30
2014,08,19,14,45,24.30
2014,08,19,14,46,24.30
2014,08,19,14,47,24.30
2014,08,19,14,48,24.10
2014,08,19,14,49,24.00
2014,08,19,14,50,24.00
2014,08,19,14,51,24.00
2014,08,19,14,52,24.00
2014,08,19,14,53,23.90
2014,08,19,14,54,23.80
2014,08,19,14,55,23.80
2014,08,19,14,56,23.70
2014,08,19,14,57,23.70
2014,08,19,14,58,23.70
2014,08,19,14,59,23.70
2014,08,19,15,00,23.70
2014,08,19,15,01,23.60
2014,08,19,15,02,23.60
2014,08,19,15,03,23.70
2014,08,19,15,04,23.70
2014,08,19,15,05,23.70
2014,08,19,15,06,23.70
2014,08,19,15,07,23.70
2014,08,19,15,08,23.80
2014,08,19,15,09,23.80
2014,08,19,15,10,23.90
2014,08,19,15,11,23.90
2014,08,19,15,12,24.00
2014,08,19,15,13,24.00
2014,08,19,15,14,24.10
2014,08,19,15,15,24.00
2014,08,19,15,16,24.00
2014,08,19,15,17,24.00
2014,08,19,15,18,24.00
2014,08,19,15,19,23.90
2014,08,19,15,20,23.90
2014,08,19,15,21,24.00
2014,08,19,15,22,24.10
2014,08,19,15,23,24.20
2014,08,19,15,24,24.20
2014,08,19,15,25,24.20
2014,08,19,15,26,24.30
2014,08,19,15,27,24.40
2014,08,19,15,28,24.50
2014,08,19,15,29,24.60
2014,08,19,15,30,24.60
2014,08,19,15,31,24.70
2014,08,19,15,32,24.60
2014,08,19,15,33,24.50
2014,08,19,15,34,24.40
2014,08,19,15,35,24.30
2014,08,19,15,36,24.20
2014,08,19,15,37,24.10
2014,08,19,15,38,24.10
2014,08,19,15,39,24.10
2014,08,19,15,40,24.00
2014,08,19,15,41,24.00
2014,08,19,15,42,24.10
2014,08,19,15,43,24.10
2014,08,19,15,44,24.20
2014,08,19,15,45,24.30
2014,08,19,15,46,24.30
2014,08,19,15,47,24.40
2014,08,19,15,48,24.40
2014,08,19,15,49,24.50
2014,08,19,15,50,24.50
2014,08,19,15,51,24.60
2014,08,19,15,52,24.60
2014,08,19,15,53,24.60
2014,08,19,15,54,24.60
2014,08,19,15,55,24.60
2014,08,19,15,56,24.60
2014,08,19,15,57,24.60
2014,08,19,15,58,24.60
2014,08,19,15,59,24.60
2014,08,19,16,00,24.60
2014,08,19,16,01,24.60
2014,08,19,16,02,24.60
2014,08,19,16,03,24.60
2014,08,19,16,04,24.70
2014,08,19,16,05,24.70
2014,08,19,16,06,24.70
2014,08,19,16,07,24.70
2014,08,19,16,08,24.80
2014,08,19,16,09,24.80
2014,08,19,16,10,24.90
2014,08,19,16,11,25.00
2014,08,19,16,12,25.00
2014,08,19,16,13,25.10
2014,08,19,16,14,25.20
2014,08,19,16,15,25.30
2014,08,19,16,16,25.40
2014,08,19,16,17,25.50
2014,08,19,16,18,25.50
2014,08,19,16,19,25.50
2014,08,19,16,20,25.40
2014,08,19,16,21,25.40
2014,08,19,16,22,25.40
2014,08,19,16,23,25.30
2014,08,19,16,24,25.30
2014,08,19,16,25,25.30
2014,08,19,16,26,25.30
2014,08,19,16,27,25.30
2014,08,19,16,28,25.30
2014,08,19,16,29,25.30
2014,08,19,16,30,25.20
2014,08,19,16,31,25.20
2014,08,19,16,32,25.10
2014,08,19,16,33,25.00
2014,08,19,16,34,24.90
2014,08,19,16,35,24.80
2014,08,19,16,36,24.80
2014,08,19,16,37,24.80
2014,08,19,16,38,24.80
2014,08,19,16,39,24.70
2014,08,19,16,40,24.70
2014,08,19,16,41,24.70
2014,08,19,16,42,24.70
2014,08,19,16,43,24.70
2014,08,19,16,44,24.70
2014,08,19,16,45,24.70
2014,08,19,16,46,24.70
2014,08,19,16,47,24.70
2014,08,19,16,48,24.70
2014,08,19,16,49,24.70
2014,08,19,16,50,24.60
2014,08,19,16,51,24.50
2014,08,19,16,52,24.40
2014,08,19,16,53,24.40
2014,08,19,16,54,24.30
2014,08,19,16,55,24.40
2014,08,19,16,56,24.40
2014,08,19,16,57,24.40
2014,08,19,16,58,24.40
2014,08,19,16,59,24.40
2014,08,19,17,00,24.40
2014,08,19,17,01,24.30
2014,08,19,17,02,24.20
2014,08,19,17,03,24.10
2014,08,19,17,04,24.10
2014,08,19,17,05,24.10
2014,08,19,17,06,24.10
2014,08,19,17,07,24.10
2014,08,19,17,08,24.10
2014,08,19,17,09,24.10
2014,08,19,17,10,24.10
2014,08,19,17,11,24.10
2014,08,19,17,12,24.10
2014,08,19,17,13,24.10
2014,08,19,17,14,24.20
2014,08,19,17,15,24.30
2014,08,19,17,16,24.30
2014,08,19,17,17,24.30
2014,08,19,17,18,24.40
2014,08,19,17,19,24.40